TimeMDT,TemperatureF,Dew PointF,Humidity,Sea Level PressureIn,VisibilityMPH,Wind Direction,Wind SpeedMPH,Gust SpeedMPH,PrecipitationIn,Events,Conditions,WindDirDegrees,DateUTC
12:53 AM,39.9,28.9,65,29.80,10.0,NNE,3.5,-,N/A,,Clear,30,2012-10-09 06:53:00
1:53 AM,44.6,33.8,66,29.83,10.0,NE,11.5,-,N/A,,Clear,50,2012-10-09 07:53:00
2:53 AM,44.1,34.0,68,29.80,10.0,NE,10.4,-,N/A,,Clear,40,2012-10-09 08:53:00
3:53 AM,42.1,36.0,79,29.84,10.0,NNE,12.7,-,N/A,,Clear,20,2012-10-09 09:53:00
4:53 AM,42.1,37.0,82,29.87,10.0,North,15.0,-,N/A,,Clear,10,2012-10-09 10:53:00
5:53 AM,41.0,37.0,86,29.93,10.0,North,10.4,-,N/A,,Clear,10,2012-10-09 11:53:00
6:53 AM,39.0,36.0,89,29.99,10.0,North,9.2,-,N/A,,Clear,350,2012-10-09 12:53:00
7:53 AM,41.0,37.0,86,30.03,10.0,North,13.8,-,N/A,,Clear,10,2012-10-09 13:53:00
8:14 AM,42.8,37.4,81,30.02,10.0,North,16.1,-,N/A,,Mostly Cloudy,10,2012-10-09 14:14:00
8:53 AM,45.0,37.9,76,30.05,10.0,NNE,21.9,28.8,N/A,,Overcast,20,2012-10-09 14:53:00
9:41 AM,44.6,37.4,76,30.07,10.0,NNE,21.9,26.5,N/A,,Overcast,20,2012-10-09 15:41:00
9:49 AM,46.4,37.4,71,30.07,10.0,NNE,16.1,25.3,N/A,,Overcast,20,2012-10-09 15:49:00
9:53 AM,45.0,37.0,74,30.09,10.0,NNE,18.4,25.3,N/A,,Overcast,20,2012-10-09 15:53:00
10:20 AM,48.2,33.8,58,30.08,10.0,North,19.6,26.5,N/A,,Scattered Clouds,10,2012-10-09 16:20:00
10:53 AM,48.9,30.9,50,30.13,10.0,NNE,19.6,26.5,N/A,,Overcast,30,2012-10-09 16:53:00
11:53 AM,51.1,30.9,46,30.12,10.0,NNE,16.1,23.0,N/A,,Clear,20,2012-10-09 17:53:00
12:53 PM,54.0,30.9,41,30.11,10.0,North,17.3,24.2,N/A,,Clear,360,2012-10-09 18:53:00
1:53 PM,55.0,30.0,38,30.09,10.0,NNW,17.3,25.3,N/A,,Clear,340,2012-10-09 19:53:00
2:53 PM,54.0,30.0,40,30.10,10.0,NNW,12.7,23.0,N/A,,Clear,340,2012-10-09 20:53:00
3:53 PM,54.0,30.9,41,30.12,10.0,North,15.0,20.7,N/A,,Clear,350,2012-10-09 21:53:00
4:53 PM,53.1,30.0,41,30.12,10.0,NNW,15.0,-,N/A,,Clear,340,2012-10-09 22:53:00
5:53 PM,48.9,30.0,48,30.15,10.0,NNW,9.2,-,N/A,,Clear,330,2012-10-09 23:53:00
6:53 PM,44.1,30.9,60,30.19,10.0,NNW,5.8,-,N/A,,Clear,330,2012-10-10 00:53:00
7:53 PM,39.9,30.9,70,30.22,10.0,WNW,5.8,-,N/A,,Clear,300,2012-10-10 01:53:00
8:53 PM,37.9,30.0,73,30.24,10.0,WNW,4.6,-,N/A,,Clear,300,2012-10-10 02:53:00
9:53 PM,37.9,30.9,76,30.26,10.0,WNW,6.9,-,N/A,,Clear,290,2012-10-10 03:53:00
10:53 PM,36.0,28.9,76,30.26,10.0,WNW,4.6,-,N/A,,Clear,290,2012-10-10 04:53:00
11:53 PM,35.1,28.9,78,30.25,10.0,NW,4.6,-,N/A,,Clear,310,2012-10-10 05:53:00